[[{"header":{"parameterUnit":"m.s-1","parameterCategory":2,"la1":30.2992,"la2":30.254,"lo1":-89.0895,"lo2":-89.0443,"dy":0.0025,"dx":0.0025,"nx":19,"ny":19,"refTime":"2026-03-21T03:00:00:Z","depth":"0","parameterNumber":2,"parameterNumberName":"U-component_of_CURRENTS"},"data":[0,0,0,0.0176,0.0175,0.0166,0.0167,0.0289,0.029,0,0,0,0,0,0,0,0,0,0,0,0.019,0.0189,0.0177,0.0175,0.0166,0.0167,0.0289,0.029,0,0,0,0,0,0,0,0,0,0,0,0.019,0.0189,0.0188,0.0175,0.0166,0.0167,0.0289,0.0271,0,0,0,0,0,0,0,0,0,0,0.0267,0.0272,0.019,0.0188,0.0174,0.0166,0.0167,0.0269,0.0272,0.0319,0,0.0293,0,0.0275,0.0298,0.0298,0,0,0,0.0213,0.0269,0.0232,0.0188,0.0174,0.0166,0.0181,0.027,0.0274,0.0324,0.0294,0.0298,0.0277,0.0298,0.0299,0.0375,0.0375,0,0,0.0214,0.0233,0.0228,0.0233,0.0142,0.0181,0.018,0.0271,0.0287,0.0295,0.03,0.0279,0.0299,0.03,0.0375,0.0375,0,0,0,0.0189,0.0234,0.0193,0.0229,0.0206,0.018,0.0179,0.0284,0.0259,0.0301,0.0281,0.03,0.0301,0.0375,0.0375,0.039,0,0,0,0.0192,0.0215,0.0193,0.0211,0.0202,0.0231,0.019,0.0253,0.0262,0.028,0.03,0.0302,0.0375,0.0375,0.039,0.0387,0,0,0,0.0196,0.0217,0.0198,0.021,0.0183,0.0228,0.0212,0.0255,0.0249,0.0298,0.0303,0.0375,0.0375,0.0389,0.0387,0.0396,0,0,0,0.0242,0.0215,0.0199,0.0215,0.0183,0.0212,0.0211,0.0265,0.0311,0.0301,0.0375,0.0375,0.0389,0.0387,0.0396,0.0433,0.0438,0,0,0.0231,0.0215,0.0236,0.0219,0.0221,0.0218,0.026,0.0312,0.0321,0.0362,0.0363,0.039,0.0387,0.0396,0.0429,0.0434,0,0,0,0.0252,0.0248,0.0266,0.0262,0.0273,0.0273,0.0303,0.0322,0.0353,0.0335,0.0384,0.0381,0.0387,0.0409,0.0412,0.0505,0.0375,0.0375,0.0375,0.0246,0.0259,0.0266,0.0267,0.0297,0.0317,0.0349,0.0363,0.0383,0.0386,0.039,0.04,0.0423,0.0426,0.0522,0.039,0.039,0.039,0.039,0.0228,0.0233,0.0246,0.0252,0.0252,0.0288,0.0346,0.0364,0.0404,0.0398,0.0404,0.0418,0.0431,0.0531,0.0391,0.0391,0.0391,0.039,0.039,0.0245,0.0225,0.0225,0.02,0.0218,0.0261,0.0301,0.0349,0.0395,0.042,0.0438,0.0439,0.053,0.042,0.042,0.042,0.042,0.042,0.042,0.0231,0.0211,0.0183,0.0167,0.0178,0.0206,0.0279,0.0323,0.04,0.045,0.045,0.0548,0.0409,0.0411,0.042,0.042,0.042,0.042,0.042,0.0228,0.0195,0.0173,0.016,0.0169,0.0194,0.0249,0.0356,0.0411,0.0465,0.0612,0.0473,0.047,0.0468,0.0471,0.0495,0.0495,0.0495,0.0495,0.0208,0.0191,0.0158,0.0155,0.0164,0.0199,0.0281,0.0381,0.056,0.0659,0.0696,0.0717,0.071,0.0722,0.0714,0.0723,0.0811,0.0811,0.0812,0.0168,0.0175,0.0158,0.0151,0.0172,0.0203,0.0284,0.0426,0.0692,0.0833,0.0821,0.0807,0.0845,0.0826,0.0848,0.0829,0.0844,0,0]},{"header":{"parameterUnit":"m.s-1","parameterCategory":2,"la1":30.2992,"la2":30.254,"lo1":-89.0895,"lo2":-89.0443,"dy":0.0025,"dx":0.0025,"nx":19,"ny":19,"refTime":"2026-03-21T03:00:00:Z","depth":"0","parameterNumber":3,"parameterNumberName":"V-component_of_CURRENTS"},"data":[0,0,0,0.0158,0.0159,0.0221,0.0222,0.0289,0.0289,0,0,0,0,0,0,0,0,0,0,0,0.0132,0.0131,0.0158,0.0159,0.0221,0.0222,0.0289,0.0289,0,0,0,0,0,0,0,0,0,0,0,0.0132,0.0131,0.0131,0.0159,0.0221,0.0222,0.0289,0.0253,0,0,0,0,0,0,0,0,0,0,0.0197,0.0196,0.0132,0.0131,0.0159,0.0221,0.0222,0.0251,0.0255,0.0246,0,0.0229,0,0.0246,0.029,0.029,0,0,0,0.0192,0.0193,0.017,0.0131,0.0159,0.0221,0.0202,0.0254,0.0258,0.0251,0.023,0.0233,0.0247,0.029,0.029,0.0334,0.0334,0,0,0.0188,0.019,0.0167,0.0171,0.0138,0.02,0.0204,0.0257,0.0268,0.023,0.0234,0.0248,0.029,0.0291,0.0334,0.0334,0,0,0,0.0156,0.0188,0.0166,0.0168,0.0172,0.0201,0.0205,0.0267,0.0246,0.0235,0.0249,0.0291,0.0291,0.0333,0.0334,0.0309,0,0,0,0.0155,0.0166,0.0163,0.0172,0.017,0.023,0.0215,0.0243,0.025,0.0249,0.0291,0.0291,0.0333,0.0334,0.0309,0.0327,0,0,0,0.0136,0.0166,0.0152,0.0171,0.0179,0.0229,0.0217,0.0246,0.0257,0.029,0.0291,0.0333,0.0334,0.0309,0.0326,0.0338,0,0,0,0.0166,0.0159,0.0152,0.0178,0.0178,0.021,0.0217,0.0265,0.0296,0.0291,0.0333,0.0334,0.0309,0.0326,0.0337,0.0366,0.0371,0,0,0.0175,0.0161,0.0182,0.0176,0.0198,0.0206,0.0241,0.0278,0.0305,0.0319,0.0321,0.0309,0.0326,0.0338,0.0414,0.0417,0,0,0,0.02,0.0197,0.0212,0.0225,0.0238,0.0253,0.0272,0.0283,0.0322,0.0319,0.0333,0.0346,0.0353,0.037,0.0373,0.0411,0.0338,0.0338,0.0338,0.0167,0.0198,0.0232,0.0253,0.0282,0.0281,0.0302,0.0318,0.0318,0.0339,0.0342,0.0361,0.0379,0.0381,0.042,0.0346,0.0346,0.0346,0.0346,0.0174,0.0209,0.0249,0.03,0.0303,0.0325,0.0331,0.0321,0.0346,0.0352,0.0358,0.0364,0.0383,0.0424,0.0345,0.0345,0.0345,0.0345,0.0345,0.0182,0.0203,0.0236,0.0295,0.0335,0.0349,0.0373,0.0355,0.036,0.0364,0.0394,0.0395,0.0418,0.0363,0.0363,0.0363,0.0363,0.0363,0.0363,0.017,0.02,0.0239,0.0299,0.0345,0.0379,0.04,0.0417,0.0418,0.0403,0.0403,0.0444,0.0367,0.0352,0.0365,0.0365,0.0364,0.0364,0.0364,0.0189,0.0183,0.0249,0.0292,0.0379,0.0436,0.045,0.0494,0.0501,0.0505,0.0495,0.0422,0.0441,0.0439,0.0427,0.0459,0.0459,0.0459,0.0459,0.0172,0.0183,0.0262,0.0338,0.041,0.0471,0.0571,0.0608,0.0598,0.058,0.0555,0.0549,0.0544,0.0569,0.0564,0.0554,0.0618,0.0618,0.0618,0.0152,0.0197,0.026,0.0354,0.0448,0.0524,0.0636,0.0746,0.0697,0.0627,0.0603,0.0596,0.0589,0.0577,0.0615,0.0605,0.0589,0,0]}],[{"header":{"parameterUnit":"m.s-1","parameterCategory":2,"la1":30.2992,"la2":30.254,"lo1":-89.0895,"lo2":-89.0443,"dy":0.0025,"dx":0.0025,"nx":19,"ny":19,"refTime":"2026-03-21T03:00:00:Z","depth":"2","parameterNumber":2,"parameterNumberName":"U-component_of_CURRENTS"},"data":[0,0,0,-0.0103,-0.0102,-0.0068,-0.0068,0.0037,0.0038,0,0,0,0,0,0,0,0,0,0,0,-0.0145,-0.0146,-0.0103,-0.0102,-0.0068,-0.0068,0.0036,0.0038,0,0,0,0,0,0,0,0,0,0,0,-0.0145,-0.0145,-0.0146,-0.0101,-0.0068,-0.0068,0.0036,-0.0008,0,0,0,0,0,0,0,0,0,0,-0.005,-0.0048,-0.0145,-0.0146,-0.0101,-0.0068,-0.0068,-0.0011,-0.0005,0.0042,0,0.0031,0,0.0058,0.0047,0.0048,0,0,0,-0.0114,-0.0053,-0.0081,-0.0146,-0.0101,-0.0067,-0.0086,-0.0008,-0.0002,0.005,0.0032,0.0037,0.006,0.0048,0.0049,0.0073,0.0072,0,0,-0.0116,-0.0095,-0.0086,-0.0078,-0.0111,-0.0087,-0.0085,-0.0005,0.0019,0.0033,0.004,0.0062,0.0049,0.005,0.0074,0.0073,0,0,0,-0.0113,-0.0096,-0.0127,-0.0082,-0.0069,-0.0086,-0.0084,0.0015,-0.0008,0.0041,0.0063,0.005,0.0052,0.0075,0.0073,0.0181,0,0,0,-0.0115,-0.0094,-0.0129,-0.0109,-0.0071,-0.002,-0.0065,-0.0015,-0.0003,0.0062,0.005,0.0053,0.0075,0.0074,0.018,0.0158,0,0,0,-0.0143,-0.0094,-0.0107,-0.011,-0.009,-0.0022,-0.0038,-0.0013,0.0012,0.0048,0.0053,0.0076,0.0074,0.018,0.0158,0.0188,0,0,0,-0.0102,-0.0134,-0.0107,-0.0063,-0.0091,-0.006,-0.0039,0.0028,0.0063,0.0051,0.0075,0.0073,0.0179,0.0158,0.0188,0.0148,0.0148,0,0,-0.0132,-0.0136,-0.0097,-0.0072,-0.0042,-0.0065,-0.0008,0.0058,0.0038,0.0054,0.0054,0.0181,0.0158,0.0188,0.0038,0.0042,0,0,0,-0.0094,-0.0097,-0.0067,-0.0019,0.0009,-0.0014,0.0043,0.007,0.0091,0.005,0.0111,0.0089,0.0108,0.008,0.0082,0.0064,0.0065,0.0065,0.0065,-0.0116,-0.007,-0.0042,-0.0023,0.001,0.0049,0.0076,0.0086,0.012,0.0123,0.0131,0.0148,0.0118,0.0119,0.011,0.011,0.0111,0.0111,0.0111,-0.0145,-0.0102,-0.0057,-0.0032,-0.0018,0.0028,0.0078,0.0119,0.0177,0.0147,0.0164,0.0133,0.0128,0.0118,0.0117,0.0116,0.0115,0.0115,0.0114,-0.01,-0.0109,-0.0075,-0.0058,-0.0017,0.0015,0.0076,0.0119,0.0191,0.0236,0.0179,0.0176,0.0229,0.0254,0.0254,0.0254,0.0254,0.0254,0.0254,-0.0081,-0.0079,-0.0078,-0.0079,-0.0037,0.0001,0.0061,0.0113,0.0157,0.0213,0.0214,0.0194,0.0189,0.0231,0.0255,0.0255,0.0254,0.0254,0.0254,-0.0066,-0.0067,-0.007,-0.0053,-0.0016,0.0012,0.0058,0.0118,0.0166,0.0197,0.0219,0.0219,0.0167,0.0162,0.0199,0.0213,0.0213,0.0213,0.0213,-0.0064,-0.007,-0.0061,-0.0034,-0.0012,0.002,0.009,0.0098,0.0121,0.0103,0.0108,0.0085,0.0089,0.003,0.0029,0.0061,0.0039,0.0039,0.0038,-0.0102,-0.0078,-0.0074,-0.0042,-0.0,0.0026,0.0082,0.0131,0.0089,0.003,0.0062,0.0204,0.0183,0.0185,0.01,0.0096,0.0151,0,0]},{"header":{"parameterUnit":"m.s-1","parameterCategory":2,"la1":30.2992,"la2":30.254,"lo1":-89.0895,"lo2":-89.0443,"dy":0.0025,"dx":0.0025,"nx":19,"ny":19,"refTime":"2026-03-21T03:00:00:Z","depth":"2","parameterNumber":3,"parameterNumberName":"V-component_of_CURRENTS"},"data":[0,0,0,0.0042,0.0043,0.0098,0.0099,0.0155,0.0156,0,0,0,0,0,0,0,0,0,0,0,0.0004,0.0004,0.0042,0.0043,0.0098,0.0099,0.0155,0.0156,0,0,0,0,0,0,0,0,0,0,0,0.0004,0.0004,0.0004,0.0043,0.0098,0.0099,0.0155,0.0119,0,0,0,0,0,0,0,0,0,0,0.0068,0.0066,0.0004,0.0004,0.0043,0.0098,0.0099,0.0118,0.0121,0.0124,0,0.0112,0,0.0139,0.0158,0.0159,0,0,0,0.0052,0.0063,0.0045,0.0004,0.0044,0.0098,0.0076,0.012,0.0124,0.0128,0.0113,0.0116,0.014,0.0159,0.0159,0.0203,0.0203,0,0,0.0049,0.0053,0.0041,0.0046,0.0031,0.0074,0.0077,0.0123,0.0135,0.0113,0.0118,0.0141,0.0159,0.0159,0.0203,0.0203,0,0,0,0.0034,0.0051,0.0033,0.0043,0.0056,0.0075,0.0079,0.0133,0.0117,0.0118,0.0141,0.0159,0.016,0.0202,0.0203,0.0201,0,0,0,0.0033,0.0041,0.0031,0.004,0.0055,0.0108,0.0089,0.0113,0.012,0.0141,0.0159,0.016,0.0202,0.0203,0.02,0.0206,0,0,0,0.0007,0.0041,0.003,0.0038,0.0057,0.0107,0.0096,0.0116,0.0134,0.0159,0.016,0.0202,0.0202,0.02,0.0205,0.0219,0,0,0,0.0032,0.0026,0.003,0.006,0.0056,0.0081,0.0096,0.0143,0.0167,0.0159,0.0202,0.0203,0.02,0.0205,0.0219,0.0189,0.0189,0,0,0.0038,0.0028,0.0051,0.0055,0.0084,0.0075,0.0106,0.0148,0.0172,0.0187,0.0189,0.02,0.0205,0.0219,0.0214,0.0213,0,0,0,0.0064,0.0069,0.0084,0.0109,0.0117,0.0119,0.0143,0.0154,0.0195,0.0186,0.021,0.0213,0.0222,0.0203,0.0203,0.0205,0.0205,0.0205,0.0205,0.0046,0.0078,0.0111,0.0133,0.0158,0.0151,0.0165,0.0179,0.019,0.0216,0.0218,0.0237,0.0217,0.0216,0.0222,0.0222,0.0222,0.0222,0.0222,0.0052,0.0087,0.0129,0.0177,0.0175,0.0195,0.0193,0.0193,0.0222,0.0228,0.0236,0.021,0.0216,0.0222,0.0222,0.0222,0.0222,0.0222,0.0222,0.0066,0.0082,0.0119,0.0175,0.0217,0.0222,0.0245,0.0224,0.0239,0.0248,0.0234,0.0234,0.0237,0.0253,0.0253,0.0253,0.0253,0.0253,0.0253,0.0055,0.0086,0.0126,0.0183,0.0236,0.0266,0.0272,0.028,0.0251,0.0239,0.0239,0.0248,0.0247,0.024,0.0254,0.0254,0.0254,0.0254,0.0254,0.0074,0.0075,0.014,0.0186,0.0275,0.0311,0.0318,0.0308,0.0304,0.0286,0.0235,0.0235,0.0236,0.0236,0.0229,0.024,0.024,0.024,0.024,0.006,0.0071,0.0155,0.0236,0.0301,0.0337,0.0377,0.0302,0.0223,0.0142,0.0146,0.0119,0.0122,0.0116,0.0118,0.0108,0.0088,0.0088,0.0087,0.0035,0.0083,0.0145,0.0245,0.0335,0.0365,0.0394,0.0338,0.0161,0.008,0.0101,0.0233,0.0205,0.0205,0.0204,0.0204,0.0192,0,0]}],[{"header":{"parameterUnit":"m.s-1","parameterCategory":2,"la1":30.2992,"la2":30.254,"lo1":-89.0895,"lo2":-89.0443,"dy":0.0025,"dx":0.0025,"nx":19,"ny":19,"refTime":"2026-03-21T03:00:00:Z","depth":"4","parameterNumber":2,"parameterNumberName":"U-component_of_CURRENTS"},"data":[0,0,0,-0.0853,-0.0855,-0.1027,-0.1028,-0.1269,-0.1271,0,0,0,0,0,0,0,0,0,0,0,-0.084,-0.0841,-0.0853,-0.0855,-0.1027,-0.1028,-0.1269,-0.1271,0,0,0,0,0,0,0,0,0,0,0,-0.0839,-0.0841,-0.0842,-0.0856,-0.1027,-0.1028,-0.1268,-0.1143,0,0,0,0,0,0,0,0,0,0,-0.0978,-0.0924,-0.084,-0.0843,-0.0856,-0.1026,-0.1028,-0.1138,-0.1151,-0.1184,0,-0.1223,0,-0.1215,-0.1283,-0.1284,0,0,0,-0.0897,-0.0913,-0.0968,-0.0843,-0.0857,-0.1026,-0.0961,-0.1145,-0.1161,-0.1202,-0.1226,-0.1234,-0.1219,-0.1285,-0.1286,-0.1584,-0.1586,0,0,-0.0887,-0.0862,-0.0957,-0.0978,-0.0918,-0.0955,-0.0966,-0.1155,-0.1172,-0.1227,-0.1238,-0.1223,-0.1286,-0.1287,-0.1582,-0.1585,0,0,0,-0.0832,-0.0855,-0.0907,-0.0969,-0.0978,-0.0959,-0.0972,-0.1165,-0.1186,-0.1241,-0.1226,-0.1287,-0.1289,-0.158,-0.1583,-0.1606,0,0,0,-0.0828,-0.082,-0.0903,-0.0888,-0.0974,-0.1061,-0.0977,-0.1175,-0.1193,-0.1225,-0.1287,-0.1291,-0.1578,-0.1582,-0.1601,-0.1594,0,0,0,-0.0829,-0.0818,-0.0846,-0.0887,-0.0937,-0.1058,-0.1091,-0.1179,-0.1182,-0.1284,-0.1292,-0.1577,-0.1581,-0.1597,-0.1588,-0.1574,0,0,0,-0.0787,-0.0831,-0.0846,-0.0865,-0.0936,-0.101,-0.1089,-0.1197,-0.1287,-0.1288,-0.1579,-0.1583,-0.1595,-0.1584,-0.1572,-0.1144,0,0,0,-0.0813,-0.0834,-0.0835,-0.0851,-0.0908,-0.0989,-0.1073,-0.1249,-0.1371,-0.152,-0.1527,-0.1603,-0.1587,-0.1574,-0.1408,0,0,0,0,-0.082,-0.0841,-0.0854,-0.0886,-0.0938,-0.1064,-0.1186,-0.1289,-0.155,-0.1436,-0.1686,-0.1677,-0.1665,-0.1415,-0.1604,-0.1604,-0.1603,-0.1603,-0.1602,-0.085,-0.0852,-0.0876,-0.0926,-0.0991,-0.1132,-0.1249,-0.1442,-0.1539,-0.1718,-0.1758,-0.1849,-0.1596,-0.1839,-0.1839,-0.184,-0.184,-0.184,-0.184,-0.0847,-0.0842,-0.0892,-0.0931,-0.1057,-0.1178,-0.1432,-0.1563,-0.1759,-0.1863,-0.185,-0.1537,-0.1844,-0.1844,-0.1843,-0.1842,-0.1842,-0.1842,-0.1842,-0.0788,-0.0809,-0.0853,-0.0941,-0.1114,-0.131,-0.1484,-0.1723,-0.1851,-0.1854,-0.161,-0.1862,-0.1783,-0.1892,-0.1892,-0.1892,-0.1892,-0.1892,-0.1892,-0.0739,-0.0795,-0.0824,-0.0969,-0.1062,-0.1295,-0.1594,-0.1597,-0.1728,-0.1597,-0.1904,-0.1866,-0.1864,-0.1789,-0.1892,-0.1892,-0.1892,-0.1892,-0.1892,-0.0679,-0.0739,-0.0745,-0.0803,-0.0951,-0.1107,-0.1412,-0.1351,-0.1268,-0.1114,-0.1416,-0.144,-0.1374,-0.1384,-0.1288,-0.1246,-0.1241,-0.1236,0,-0.064,-0.0666,-0.0654,-0.067,-0.0704,-0.0963,-0.0808,-0.0816,-0.0932,-0.098,-0.1218,-0.157,-0.1582,-0.1517,-0.1518,-0.1409,0,0,0,-0.0607,-0.0597,-0.0534,-0.0543,-0.0593,-0.0594,-0.0764,-0.0727,-0.0985,-0.0685,-0.1105,-0.1139,-0.1331,-0.189,-0.1846,-0.1844,-0.172,0,0]},{"header":{"parameterUnit":"m.s-1","parameterCategory":2,"la1":30.2992,"la2":30.254,"lo1":-89.0895,"lo2":-89.0443,"dy":0.0025,"dx":0.0025,"nx":19,"ny":19,"refTime":"2026-03-21T03:00:00:Z","depth":"4","parameterNumber":3,"parameterNumberName":"V-component_of_CURRENTS"},"data":[0,0,0,-0.0123,-0.0124,-0.0209,-0.0209,-0.0207,-0.0207,0,0,0,0,0,0,0,0,0,0,0,-0.0091,-0.0091,-0.0123,-0.0125,-0.0209,-0.0209,-0.0207,-0.0207,0,0,0,0,0,0,0,0,0,0,0,-0.0091,-0.0091,-0.0092,-0.0125,-0.0209,-0.0209,-0.0207,-0.0173,0,0,0,0,0,0,0,0,0,0,-0.0106,-0.0102,-0.0091,-0.0092,-0.0125,-0.0209,-0.0209,-0.0173,-0.0175,-0.0135,0,-0.0145,0,-0.017,-0.0203,-0.0203,0,0,0,-0.0133,-0.0101,-0.0108,-0.0092,-0.0126,-0.0208,-0.0173,-0.0175,-0.0178,-0.0138,-0.0145,-0.0146,-0.017,-0.0203,-0.0203,-0.0152,-0.0152,0,0,-0.0128,-0.012,-0.0107,-0.011,-0.014,-0.017,-0.0176,-0.0178,-0.0183,-0.0145,-0.0147,-0.017,-0.0203,-0.0202,-0.0152,-0.0152,0,0,0,-0.0109,-0.0116,-0.0127,-0.0109,-0.013,-0.0173,-0.0179,-0.0184,-0.0183,-0.0147,-0.017,-0.0202,-0.0202,-0.0152,-0.0152,-0.021,0,0,0,-0.0107,-0.0105,-0.0125,-0.0122,-0.013,-0.0176,-0.0184,-0.0183,-0.0185,-0.017,-0.0202,-0.0201,-0.0152,-0.0152,-0.0209,-0.0237,0,0,0,-0.0088,-0.0103,-0.0108,-0.0121,-0.0153,-0.0177,-0.0179,-0.0185,-0.0197,-0.0203,-0.0201,-0.0152,-0.0152,-0.0208,-0.0235,-0.0194,0,0,0,-0.0084,-0.0113,-0.0108,-0.0153,-0.0152,-0.0224,-0.018,-0.0232,-0.0246,-0.0202,-0.0152,-0.0152,-0.0208,-0.0233,-0.0194,-0.0223,0,0,0,-0.0121,-0.0118,-0.0146,-0.0143,-0.0214,-0.0213,-0.0293,-0.0286,-0.0215,-0.0145,-0.0145,-0.021,-0.0235,-0.0194,-0.0197,0,0,0,0,-0.0159,-0.0173,-0.0196,-0.0233,-0.0274,-0.0324,-0.0332,-0.0307,-0.0243,-0.0218,-0.0184,-0.0197,-0.017,-0.0185,-0.015,-0.015,-0.015,-0.015,-0.015,-0.0177,-0.0207,-0.0265,-0.0308,-0.0353,-0.0402,-0.0421,-0.0371,-0.0301,-0.026,-0.0227,-0.0212,-0.023,-0.0202,-0.0203,-0.0203,-0.0203,-0.0203,-0.0203,-0.0228,-0.0269,-0.0309,-0.0378,-0.0426,-0.0483,-0.0469,-0.0428,-0.0329,-0.0271,-0.024,-0.0224,-0.0209,-0.0208,-0.0207,-0.0206,-0.0206,-0.0205,-0.0205,-0.0242,-0.0273,-0.0313,-0.0409,-0.0481,-0.052,-0.053,-0.046,-0.0355,-0.0333,-0.0252,-0.0226,-0.024,-0.0261,-0.0261,-0.0261,-0.0261,-0.0261,-0.0261,-0.0247,-0.0291,-0.036,-0.0449,-0.0504,-0.0534,-0.0528,-0.0497,-0.0391,-0.031,-0.0294,-0.023,-0.0228,-0.024,-0.026,-0.026,-0.026,-0.026,-0.026,-0.029,-0.0301,-0.0389,-0.0451,-0.0555,-0.0563,-0.0562,-0.05,-0.0439,-0.0371,-0.0292,-0.0291,-0.026,-0.0257,-0.0269,-0.0298,-0.0298,-0.0298,0,-0.0306,-0.0323,-0.0413,-0.0491,-0.0552,-0.0572,-0.0537,-0.0512,-0.0403,-0.0355,-0.0405,-0.0316,-0.0315,-0.0282,-0.0279,-0.0295,0,0,0,-0.0336,-0.0348,-0.0406,-0.0476,-0.0547,-0.051,-0.0516,-0.0493,-0.0394,-0.043,-0.0309,-0.0306,-0.0412,-0.0258,-0.0205,-0.0203,-0.0218,0,0]}]]